OPS 4682 DEB, 38425

Orbit data source: Space-Track

OPS 4682 DEB, 38425 is space debris in LEO originally from a launch on Sat, 03 Apr 1965 UTC launched from the Air Force Western Test Range (AFWTR). Debris objects in space refer to the collection of defunct objects orbiting the Earth. Examples of debris include non-operational satellites, rocket bodies, and fragments generated from explosions, collisions, or faulty payload assembly.

Loading next visibility...
Identifier
38425, 1965-027EE
Orbit
LEO
Country
Flag of USUS
Related business
Manufacturer
Unknown
Mission
Spacecraft
Bus & Motor
Unknown
Mass
Unknown
Launch date (UTC)
1965-04-03 (61 years ago)
Launch vehicle
Unknown
Launch site
Air Force Western Test Range (AFWTR)
Object type
Payload
Rocket body
Debris
Shape & HBR
Unknown shape, 0.1 m
Radar Cross Section
Medium (>0.1 m² and <1 m²)

Expand to show TLE details & history
Last TLE update: 1 day ago

TLE from 1 day ago
0 OPS 4682 DEB
1 38425U 65027EE  26220.83433957  .00000002  00000-0 -20336-4 0  9997
2 38425  90.2475   8.8834 0038630  92.4867 268.0676 12.95208397669370
Epoch: 2026-08-08T20:01Z
TLE epoch observation values (Epoch: 2026-08-08T20:01:26.938Z)
Latitude
-0.00001°
Longitude
111.18116°
Altitude
1,284.907 km
Speed
7.213 km/s
True Right ascension
00h 35m 32s
True Declination
0° 00' 00"
Sunlit
Object was in full shadow at epoch
Visualization orbit readout
Latitude
Unknown
Longitude
Unknown
Altitude
Unknown
Speed
Unknown
Apparent Right ascension
Unknown
Apparent Declination
Unknown
Sunlit
N/A
Visualization observer readout
Local Sidereal Time
16:13:10
Azimuth
Unknown
Elevation
Unknown
Doppler factor
Unknown
Orbital elements
Apogee altitude
1,307.628 km
Perigee altitude
1,248.476 km
Semi-major axis
7,656.189 km
Eccentricity
0.00386
Inclination
90.2475°
RAAN
8.8834°
Arg. of periapsis
92.4867°
True anomaly
267.62526°
Mean anomaly
268.0676°
Eccentric anomaly
267.84642°
Mean motion
3.23984 °/min
Orbital period
111.12 mins
BSTAR
-0.000020336
Loading maneuver chart data...
Computing Atmospheric mass density...
Loading historical data...
Loading historical data...
Loading historical data...
Loading historical data...
Loading historical data...
Loading historical data...
Loading historical data...

Documentation

Showing up to 5 results
|